This is the latest recevied weather packets stored in our database for station/object K1TTC. If no packets are shown the sender has not sent any weather packets the latest 10 day(s).
| Time | Temp. | Humidity | Pressure | Rain* | Wind** | Luminosity | Snow |
|---|---|---|---|---|---|---|---|
| 1788556913 | 27.22° C | 47% | 1010.1 hPa | 0 mm | - | 56 W/m² | - |
| 1788556313 | 27.22° C | 46% | 1010.1 hPa | 0 mm | - | 77 W/m² | - |
| 1788555707 | 27.22° C | 45% | 1010.1 hPa | 0 mm | - | 81 W/m² | - |
| 1788555106 | 27.78° C | 45% | 1010 hPa | 0 mm | - | 141 W/m² | - |
| 1788554507 | 27.78° C | 45% | 1010 hPa | 0 mm | - | 114 W/m² | - |
| 1788553908 | 28.33° C | 45% | 1010.1 hPa | 0 mm | - | 132 W/m² | - |
| 1788553306 | 28.33° C | 44% | 1010.1 hPa | 0 mm | - | 121 W/m² | - |
| 1788552705 | 28.89° C | 42% | 1010.1 hPa | 0 mm | - | 125 W/m² | - |
| 1788552107 | 29.44° C | 40% | 1010 hPa | 0 mm | - | 221 W/m² | - |
| 1788551505 | 30° C | 37% | 1009.9 hPa | 0 mm | - | 185 W/m² | - |
| 1788550914 | 30° C | 38% | 1009.9 hPa | 0 mm | - | 279 W/m² | - |
| 1788550309 | 30° C | 37% | 1009.7 hPa | 0 mm | - | 642 W/m² | - |
| 1788549708 | 29.44° C | 39% | 1009.7 hPa | 0 mm | - | 635 W/m² | - |
| 1788549236 | 29.44° C | 39% | 1009.8 hPa | 0 mm | - | 649 W/m² | - |
| 1788548507 | 29.44° C | 41% | 1009.9 hPa | 0 mm | - | 673 W/m² | - |
| 1788547908 | 28.89° C | 43% | 1010 hPa | 0 mm | - | 691 W/m² | - |
| 1788547300 | 28.89° C | 45% | 1010.2 hPa | 0 mm | - | 722 W/m² | - |
| 1788546830 | 28.89° C | 43% | 1010.2 hPa | 0 mm | - | 884 W/m² | - |
| 1788546108 | 29.44° C | 43% | 1010.2 hPa | 0 mm | - | 225 W/m² | - |
| 1788545501 | 29.44° C | 42% | 1010.1 hPa | 0 mm | - | 993 W/m² | - |
| 1788544899 | 29.44° C | 44% | 1010.1 hPa | 0 mm | - | 905 W/m² | - |
| 1788544293 | 28.89° C | 41% | 1010.2 hPa | 0 mm | - | 861 W/m² | - |
| 1788543693 | 28.89° C | 43% | 1010.1 hPa | 0 mm | - | 889 W/m² | - |
| 1788543206 | 28.89° C | 44% | 1010.2 hPa | 0 mm | - | 90 W/m² | - |
| 1788542490 | 29.44° C | 45% | 1010.2 hPa | 0 mm | - | 896 W/m² | - |
* Rain latest hour (hover to see other rain measurements)
** Current wind speed in m/s (hover to see current wind gust speed)